Regional Weather Roundup
Issued by NWS

Home | Current Version | Previous Version | Text Only | Print | Product List | Glossary Off
Versions: 1 2 3 4 5 6 7 8 9 10 11 12 13 14 15 16 17 18 19 20 21 22 23 24 25 26 27 28 29 30 31 32 33 34 35 36 37 38 39 40 41 42 43 44 45 46 47 48 49 50

000
ASUS43 KBIS 271102
RWRND

NORTH DAKOTA REGIONAL WEATHER ROUNDUP
NATIONAL WEATHER SERVICE BISMARCK ND
600 AM CDT MON MAR 27 2017

NOTE: "FAIR" INDICATES FEW OR NO CLOUDS BELOW 12,000 FEET WITH NO
SIGNIFICANT WEATHER AND/OR OBSTRUCTIONS TO VISIBILITY.


NDZ001>003-009>011-017-271200-
NORTHWEST NORTH DAKOTA

CITY           SKY/WX    TMP DP  RH WIND       PRES   REMARKS
WILLISTON      FAIR      32  28  85 NE6       29.87F
MINOT          MOCLDY    37  33  85 SW5       29.86S
MINOT AFB      CLEAR     32  30  95 NW3       29.86S
$$

NDZ018>021-031>035-040>046-271200-
SOUTHWEST NORTH DAKOTA

CITY           SKY/WX    TMP DP  RH WIND       PRES   REMARKS
BISMARCK       MOCLDY    32  30  92 CALM      29.91R
DICKINSON      FAIR      34  30  85 S3        29.85S
GARRISON         N/A     32  29  88 CALM      29.86F
HETTINGER ARPT PTCLDY    30  28  92 CALM      29.89S
$$

NDZ004>008-012>016-024-026-027-054-271200-
NORTHEAST NORTH DAKOTA

CITY           SKY/WX    TMP DP  RH WIND       PRES   REMARKS
GRAND FORKS    FOG       38  38 100 CALM      29.96S VSB 1/4
GRND FRKS AFB  FOG       36  36 100 CALM      29.97R VSB 1/2
DEVILS LAKE    CLOUDY    30  30 100 SE6       29.92S FOG
$$

NDZ022-023-025-028>030-036>039-047>053-271200-
SOUTHEAST NORTH DAKOTA

CITY           SKY/WX    TMP DP  RH WIND       PRES   REMARKS
FARGO          CLOUDY    33  31  92 CALM      29.96R FOG
JAMESTOWN      FOG       28  27  96 S3        29.92S VSB 1/4
$$





USA.gov is the U.S. government's official web portal to all federal, state and local government web resources and services.